sat.trackr.live / text

‹ back to catalog

NINGXIA-1 10

NORAD 49022 · 2021-064E

PAYLOAD ACTIVE UNKNOWN

§ Identity

Operator
Country
PRC
Launch date
2021-07-09
Launch site
TAISC
Launch vehicle
Mass (kg)
RCS (m²)

External: N2YO · Heavens-Above · Gunter

§ Orbital elements

Epoch: 2026-09-20T23:16:39.467136Z

Period
102.23 min
Inclination
44.9984°
Eccentricity
0.0008554
Mean motion
14.08564705 rev/d
Perigee alt
858.1 km
Apogee alt
870.5 km
Semi-major
7,242.4 km
B*
1.3483e-4
RAAN
153.7034°
Arg perigee
354.0635°
Mean anomaly
6.0099°
Rev number
26,773

§ Raw data

NINGXIA-1 101 49022U 21064E   26263.96990124  .00000101  00000+0  13483-3 0  99922 49022  44.9984 153.7034 0008554 354.0635   6.0099 14.08564705267737

JSON: /api/v1/satellites/49022 · /tle

For live sub-satellite position, see the globe view (requires WebGL).

§ Visibility from observer

Set your observer location to see the next 7 days of passes ≥ 10°. The values pass through the URL so the page stays shareable.

No JS? Fill the form by hand. The geolocation button needs JavaScript.